Weather History for New Delhi, India

Change the Weather History Date:

Tuesday, March 19, 2013

  Actual Average Record
Temperature  
Mean Temperature 74 °F -  
Max Temperature 87 °F 91 °F 98 °F (2002)
Min Temperature 60 °F 67 °F 59 °F (1998)
Cooling Degree Days 8    
Growing Degree Days 24 (Base 50)    
Moisture  
Dew Point 63 °F    
Average Humidity 70    
Maximum Humidity 100    
Minimum Humidity 35    
Precipitation  
Precipitation 0.00 in - - ()
Sea Level Pressure  
Sea Level Pressure 29.81 in    
Wind  
Wind Speed 7 mph ()    
Max Wind Speed 16 mph    
Max Gust Speed 23 mph    
Visibility 1.5 miles    
Events Fog    
Averages and records for this station are not official NWS values.
T = Trace of Precipitation, MM = Missing Value Source: Averaged Metar Reports

Daily Weather History Graph

Daily Weather History Graph

Search for Another Location

Airport:

Trip Planner

Search our weather history database for the weather conditions in past years. The results will help you decide how hot, cold, wet, or windy it might be!

Date:

Astronomy

Mar. 19, 2013 Rise Set
Actual Time 6:26 AM IST 6:32 PM IST
Civil Twilight 6:03 AM IST 6:55 PM IST
Nautical Twilight 5:35 AM IST 7:23 PM IST
Astronomical Twilight 5:08 AM IST 7:50 PM IST
Moon 11:19 AM IST (3/19) 12:30 AM IST (3/19)
Length of Visible Light 12h 52m
Length of Day
12h 05m
Waxing Crescent, 46% of the Moon is Illuminated
Mar 19
Waxing Crescent
Mar 19
First Quarter
Mar 27
Full
Apr 3
Last Quarter
Apr 10
New

Hourly Weather History & Observations

Time (IST) Temp. Heat Index Dew Point Humidity Pressure Visibility Wind Dir Wind Speed Gust Speed Precip Events Conditions
12:00 AM 69.8 °F - 66.2 °F 88% 29.80 in 0.9 mi WNW 6.9 mph - N/A   Mist
1:00 AM 69.8 °F - 66.2 °F 88% 29.80 in 0.9 mi West 6.9 mph - N/A   Mist
1:30 AM 68.0 °F - 66.2 °F 94% 29.80 in 0.7 mi WSW 5.8 mph - N/A   Mist
2:00 AM 64.4 °F - 62.6 °F 94% 29.80 in 0.7 mi WSW 5.8 mph - N/A   Mist
2:30 AM 62.6 °F - 62.6 °F 100% 29.77 in 0.6 mi WSW 4.6 mph - N/A Fog Shallow Fog
3:30 AM 62.6 °F - 62.6 °F 100% 29.77 in 0.5 mi West 6.9 mph - N/A Fog Shallow Fog
4:00 AM 62.6 °F - 62.6 °F 100% 29.77 in 0.6 mi West 6.9 mph - N/A   Mist
4:30 AM 62.6 °F - 62.6 °F 100% 29.77 in 0.6 mi West 6.9 mph - N/A   Mist
5:00 AM 62.6 °F - 60.8 °F 94% 29.77 in 0.6 mi West 8.1 mph - N/A Fog Shallow Fog
6:00 AM 60.8 °F - 60.8 °F 100% 29.77 in 0.5 mi WSW 5.8 mph - N/A Fog Shallow Fog
6:30 AM 60.8 °F - 60.8 °F 100% 29.77 in 0.5 mi WSW 6.9 mph - N/A Fog Shallow Fog
7:00 AM 60.8 °F - 60.8 °F 100% 29.80 in 0.5 mi West 5.8 mph - N/A Fog Shallow Fog
7:30 AM 62.6 °F - 60.8 °F 94% 29.80 in 0.5 mi WSW 5.8 mph - N/A Fog Shallow Fog
8:00 AM 64.4 °F - 62.6 °F 94% 29.83 in 0.6 mi WSW 6.9 mph - N/A   Mist
8:30 AM 66.2 °F - 62.6 °F 88% 29.83 in 0.8 mi West 8.1 mph - N/A   Mist
9:30 AM 71.6 °F - 62.6 °F 73% 29.86 in 1.0 mi West 10.4 mph - N/A   Haze
10:00 AM 73.4 °F - 62.6 °F 69% 29.86 in 1.1 mi West 10.4 mph - N/A   Haze
10:30 AM 77.0 °F - 66.2 °F 69% 29.86 in 1.5 mi West 10.4 mph - N/A   Haze
11:30 AM 80.6 °F 82.3 °F 64.4 °F 58% 29.86 in 2.2 mi WNW 11.5 mph - N/A   Haze
12:00 PM 82.4 °F 83.4 °F 62.6 °F 51% 29.83 in 2.2 mi NW 11.5 mph - N/A   Haze
12:30 PM 84.2 °F 83.8 °F 59.0 °F 42% 29.83 in 2.2 mi West 13.8 mph - N/A   Haze
1:00 PM 84.2 °F 85.0 °F 62.6 °F 48% 29.80 in 2.2 mi West 12.7 mph - N/A   Haze
1:30 PM 84.2 °F 85.0 °F 62.6 °F 48% 29.80 in 2.2 mi West 12.7 mph - N/A   Haze
2:00 PM 86.0 °F 86.1 °F 60.8 °F 43% 29.80 in 2.2 mi WNW 13.8 mph - N/A   Haze
2:30 PM 87.8 °F 87.6 °F 60.8 °F 40% 29.80 in 2.2 mi WNW 13.8 mph - N/A   Haze
3:00 PM 87.8 °F 87.6 °F 60.8 °F 40% 29.80 in 2.2 mi WNW 11.5 mph 23.0 mph N/A   Haze
3:30 PM 87.8 °F 87.1 °F 59.0 °F 38% 29.77 in 2.5 mi WNW 16.1 mph - N/A   Haze
4:00 PM 87.8 °F 86.5 °F 57.2 °F 35% 29.77 in 2.8 mi WNW 16.1 mph - N/A   Haze
5:00 PM 86.0 °F 84.9 °F 57.2 °F 37% 29.77 in 3.1 mi WNW 9.2 mph 20.7 mph N/A   Haze
5:30 PM 86.0 °F 84.9 °F 57.2 °F 37% 29.77 in 2.8 mi WNW 11.5 mph - N/A   Haze
6:00 PM 84.2 °F 83.8 °F 59.0 °F 42% 29.77 in 2.8 mi WNW 11.5 mph - N/A   Haze
6:30 PM 84.2 °F 84.4 °F 60.8 °F 45% 29.80 in - WNW 9.2 mph - N/A   Haze
7:00 PM 82.4 °F 83.4 °F 62.6 °F 51% 29.80 in - NW 6.9 mph - N/A   Haze
7:30 PM 80.6 °F 82.3 °F 64.4 °F 58% 29.80 in - NW 6.9 mph - N/A   Haze
8:00 PM 78.8 °F - 66.2 °F 65% 29.83 in - WNW 6.9 mph - N/A   Haze
8:30 PM 78.8 °F - 68.0 °F 69% 29.83 in - NW 6.9 mph - N/A   Haze
9:30 PM 77.0 °F - 66.2 °F 69% 29.83 in 1.6 mi NW 4.6 mph - N/A   Haze
10:00 PM 77.0 °F - 66.2 °F 69% 29.83 in 1.6 mi North 4.6 mph - N/A   Haze
10:30 PM 75.2 °F - 66.2 °F 73% 29.86 in 1.6 mi NW 5.8 mph - N/A   Haze
11:00 PM 75.2 °F - 66.2 °F 73% 29.86 in 1.6 mi Calm Calm - N/A   Haze
11:30 PM 75.2 °F - 68.0 °F 78% 29.83 in 1.3 mi Calm Calm - N/A   Haze